Weather History for KDDH - January, 2013

Change the Weather History Date:

Wednesday, January 30, 2013

  Actual Average Record
Temperature  
Mean Temperature 51 °F 22 °F  
Max Temperature 62 °F 32 °F 31 °F (2015)
Min Temperature 40 °F 12 °F -4 °F (2014)
Degree Days  
Heating Degree Days 14 43  
Month to date heating degree days 1220 1313  
Since 1 July heating degree days 3665 4085  
Cooling Degree Days 0 0  
Month to date cooling degree days 0 0  
Year to date cooling degree days 0 0  
Growing Degree Days 2 (Base 50)    
Moisture  
Dew Point 48 °F    
Average Humidity 78    
Maximum Humidity 89    
Minimum Humidity 67    
Precipitation  
Precipitation 0.11 in 0.07 in 0.18 in (2015)
Month to date precipitation 0.79 2.67  
Year to date precipitation 0.79 2.67  
Sea Level Pressure  
Sea Level Pressure 29.64 in    
Wind  
Wind Speed 10 mph (South)    
Max Wind Speed 36 mph    
Max Gust Speed 52 mph    
Visibility 10 miles    
Events Rain    
T = Trace of Precipitation, MM = Missing Value Source: NWS Daily Summary

Daily Weather History Graph

Daily Weather History Graph

Search for Another Location

Airport or City:

Trip Planner

Search our weather history database for the weather conditions in past years. The results will help you decide how hot, cold, wet, or windy it might be!

Date:

Astronomy

Jan. 30, 2013 Rise Set
Actual Time 7:09 AM EST 5:03 PM EST
Civil Twilight 6:39 AM EST 5:33 PM EST
Nautical Twilight 6:05 AM EST 6:07 PM EST
Astronomical Twilight 5:32 AM EST 6:41 PM EST
Moon 9:06 PM EST (1/30) 8:29 AM EST (1/30)
Length of Visible Light 10h 54m
Length of Day
9h 53m
Waning Gibbous, 88% of the Moon is Illuminated
Jan 30
Waning Gibbous
Feb 3
Last Quarter
Feb 10
New
Feb 17
First Quarter
Feb 25
Full

Hourly Weather History & Observations

Time (EST) Temp. Windchill Dew Point Humidity Pressure Visibility Wind Dir Wind Speed Gust Speed Precip Events Conditions
12:54 AM 42.1 °F 40.2 °F 37.0 °F 82% 30.00 in 10.0 mi Variable 3.5 mph 18.4 mph 0.00 in   Overcast
1:54 AM 42.1 °F 37.7 °F 37.0 °F 82% 29.98 in 10.0 mi SSE 6.9 mph - 0.01 in   Overcast
2:10 AM 42.8 °F 39.3 °F 37.4 °F 81% 29.95 in 10.0 mi Variable 5.8 mph 17.3 mph N/A   Overcast
2:54 AM 43.0 °F 40.3 °F 39.0 °F 86% 29.95 in 10.0 mi SSW 4.6 mph - N/A   Overcast
3:54 AM 43.0 °F 39.5 °F 39.9 °F 89% 29.90 in 9.0 mi Variable 5.8 mph - N/A   Overcast
4:54 AM 46.9 °F - 42.1 °F 83% 29.86 in 10.0 mi Variable 3.5 mph - N/A   Overcast
5:54 AM 48.0 °F - 43.0 °F 83% 29.83 in 10.0 mi Calm Calm - N/A   Mostly Cloudy
6:25 AM 46.4 °F 44.3 °F 42.8 °F 87% 29.81 in 10.0 mi Variable 4.6 mph - N/A   Scattered Clouds
6:54 AM 48.0 °F - 43.0 °F 83% 29.82 in 10.0 mi SSW 9.2 mph - N/A   Partly Cloudy
7:06 AM 48.2 °F - 44.6 °F 87% 29.79 in 10.0 mi Calm Calm - N/A   Mostly Cloudy
7:54 AM 48.9 °F - 44.1 °F 83% 29.78 in 10.0 mi Calm Calm - N/A   Overcast
8:54 AM 53.1 °F - 46.9 °F 80% 29.75 in 10.0 mi SSE 10.4 mph - N/A   Overcast
9:54 AM 55.9 °F - 50.0 °F 80% 29.72 in 9.0 mi Variable 4.6 mph 18.4 mph N/A   Overcast
10:54 AM 61.0 °F - 52.0 °F 72% 29.65 in 10.0 mi South 20.7 mph 33.4 mph N/A   Scattered Clouds
11:54 AM 62.1 °F - 52.0 °F 70% 29.60 in 10.0 mi South 18.4 mph 39.1 mph N/A   Partly Cloudy
12:54 PM 62.1 °F - 52.0 °F 70% 29.56 in 10.0 mi South 20.7 mph 41.4 mph N/A   Clear
1:49 PM 60.8 °F - 51.8 °F 72% 29.50 in 10.0 mi South 23.0 mph 42.6 mph N/A   Mostly Cloudy
1:54 PM 61.0 °F - 52.0 °F 72% 29.52 in 10.0 mi SSW 17.3 mph 38.0 mph N/A   Mostly Cloudy
2:06 PM 60.8 °F - 51.8 °F 72% 29.52 in 10.0 mi SSW 24.2 mph 38.0 mph N/A   Overcast
2:54 PM 60.1 °F - 53.1 °F 78% 29.54 in 10.0 mi SSW 15.0 mph 29.9 mph N/A   Overcast
3:54 PM 61.0 °F - 53.1 °F 75% 29.53 in 10.0 mi South 17.3 mph 34.5 mph 0.00 in   Overcast
4:28 PM 62.6 °F - 53.6 °F 72% 29.51 in 10.0 mi South 18.4 mph 31.1 mph N/A   Overcast
4:54 PM 61.0 °F - 53.1 °F 75% 29.50 in 10.0 mi South 16.1 mph 28.8 mph N/A   Overcast
5:06 PM 60.8 °F - 53.6 °F 77% 29.50 in 10.0 mi South 19.6 mph 27.6 mph N/A   Overcast
5:40 PM 60.8 °F - 53.6 °F 77% 29.51 in 8.0 mi SSW 17.3 mph 28.8 mph 0.00 in Rain Light Rain
5:54 PM 60.1 °F - 55.0 °F 83% 29.49 in 8.0 mi South 16.1 mph 26.5 mph 0.02 in Rain Light Rain
6:54 PM 60.1 °F - 54.0 °F 80% 29.48 in 10.0 mi SSW 9.2 mph - 0.00 in   Overcast
7:54 PM 60.1 °F - 53.1 °F 78% 29.45 in 10.0 mi Calm Calm - 0.01 in   Overcast
8:54 PM 59.0 °F - 53.1 °F 81% 29.45 in 10.0 mi SW 3.5 mph - 0.00 in   Overcast
9:54 PM 59.0 °F - 53.1 °F 81% 29.42 in 10.0 mi SSW 10.4 mph 18.4 mph N/A   Overcast
10:54 PM 57.0 °F - 52.0 °F 83% 29.36 in 10.0 mi SSW 11.5 mph 26.5 mph 0.01 in   Overcast
11:54 PM 55.0 °F - 52.0 °F 89% 29.33 in 3.0 mi South 11.5 mph 17.3 mph 0.05 in Rain Rain